Weather History for Cherry Point, NC

Change the Weather History Date:

Tuesday, October 8, 2013

  Actual Average Record
Temperature  
Mean Temperature 67 °F -  
Max Temperature 71 °F 74 °F 89 °F (2007)
Min Temperature 62 °F 55 °F 42 °F (2001)
Cooling Degree Days 2    
Growing Degree Days 17 (Base 50)    
Moisture  
Dew Point 63 °F    
Average Humidity 91    
Maximum Humidity 97    
Minimum Humidity 87    
Precipitation  
Precipitation 1.25 in - - ()
Sea Level Pressure  
Sea Level Pressure 30.02 in    
Wind  
Wind Speed 12 mph (NNE)    
Max Wind Speed 23 mph    
Max Gust Speed 30 mph    
Visibility 6 miles    
Events Rain , Thunderstorm    
Averages and records for this station are not official NWS values.
T = Trace of Precipitation, MM = Missing Value Source: NWS Daily Summary

Daily Weather History Graph

Daily Weather History Graph

Search for Another Location

Airport:

Trip Planner

Search our weather history database for the weather conditions in past years. The results will help you decide how hot, cold, wet, or windy it might be!

Date:

Astronomy

Oct. 08, 2013 Rise Set
Actual Time 7:07 AM EDT 6:41 PM EDT
Civil Twilight 6:42 AM EDT 7:06 PM EDT
Nautical Twilight 6:13 AM EDT 7:36 PM EDT
Astronomical Twilight 5:43 AM EDT 8:05 PM EDT
Moon 10:51 AM EDT (10/8) 9:25 PM EDT (10/8)
Length of Visible Light 12h 24m
Length of Day
11h 33m
Waxing Crescent, 16% of the Moon is Illuminated
Oct 8
Waxing Crescent
Oct 11
First Quarter
Oct 18
Full
Oct 26
Last Quarter
Nov 3
New

Hourly Weather History & Observations

Time (EDT) Temp. Dew Point Humidity Pressure Visibility Wind Dir Wind Speed Gust Speed Precip Events Conditions
12:01 AM 72.0 °F 68.0 °F 87% 29.94 in 9.0 mi ESE 6.9 mph - 0.00 in Rain , Thunderstorm Light Thunderstorms and Rain
12:54 AM 69.1 °F 66.0 °F 90% 29.95 in 4.0 mi South 6.9 mph - 0.05 in Rain , Thunderstorm Heavy Thunderstorms and Rain
1:01 AM 69.1 °F 66.9 °F 93% 29.95 in 4.0 mi South 8.1 mph - 0.01 in Rain , Thunderstorm Thunderstorms and Rain
1:11 AM 70.0 °F 68.0 °F 93% 29.96 in 4.0 mi SSW 3.5 mph - 0.02 in Rain Rain
1:34 AM 70.0 °F 68.0 °F 93% 29.95 in 4.0 mi East 8.1 mph - 0.07 in Rain , Thunderstorm Heavy Thunderstorms and Rain
1:49 AM 69.8 °F 66.2 °F 88% 29.95 in 6.0 mi East 4.6 mph - 0.11 in Rain Rain
1:54 AM 70.0 °F 66.9 °F 90% 29.94 in 6.0 mi Calm Calm - 0.12 in Rain Rain
2:54 AM 70.0 °F 68.0 °F 93% 29.93 in 9.0 mi North 6.9 mph - 0.05 in Rain Light Rain
3:50 AM 69.8 °F 68.0 °F 94% 29.96 in 5.0 mi NNW 5.8 mph - 0.08 in Rain Rain
3:54 AM 71.1 °F 68.0 °F 90% 29.95 in 5.0 mi North 8.1 mph - 0.08 in Rain Rain
4:22 AM 70.0 °F 68.0 °F 93% 29.96 in 10.0 mi NNE 15.0 mph - 0.02 in Rain Light Rain
4:32 AM 71.1 °F 68.0 °F 90% 29.96 in 10.0 mi NE 11.5 mph - 0.02 in Rain Light Rain
4:54 AM 69.1 °F 66.0 °F 90% 29.95 in 6.0 mi NE 13.8 mph - 0.05 in Rain Light Rain
5:11 AM 66.9 °F 64.9 °F 93% 29.97 in 6.0 mi NNE 20.7 mph - 0.01 in Rain Light Rain
5:21 AM 66.9 °F 63.0 °F 87% 29.98 in 6.0 mi NNE 19.6 mph 29.9 mph 0.01 in   Overcast
5:54 AM 64.9 °F 62.1 °F 90% 29.99 in 6.0 mi NNE 20.7 mph - 0.01 in Rain Light Rain
6:54 AM 64.9 °F 62.1 °F 90% 30.02 in 10.0 mi NNE 19.6 mph - 0.00 in   Overcast
7:54 AM 64.0 °F 61.0 °F 90% 30.04 in 5.0 mi NNE 19.6 mph 25.3 mph 0.04 in Rain Rain
8:54 AM 64.0 °F 62.1 °F 93% 30.05 in 7.0 mi NNE 17.3 mph - 0.04 in Rain Light Rain
9:54 AM 64.9 °F 62.1 °F 90% 30.06 in 7.0 mi NE 18.4 mph 25.3 mph 0.03 in Rain Light Rain
10:54 AM 64.0 °F 60.1 °F 87% 30.07 in 8.0 mi NE 23.0 mph - 0.01 in Rain Light Rain
11:54 AM 63.0 °F 59.0 °F 87% 30.08 in 9.0 mi NNE 21.9 mph 29.9 mph 0.02 in Rain Light Rain
12:01 PM 63.0 °F 59.0 °F 87% 30.09 in 8.0 mi NNE 18.4 mph 29.9 mph 0.00 in Rain Light Rain
12:54 PM 63.0 °F 59.0 °F 87% 30.08 in 7.0 mi NNE 18.4 mph 27.6 mph 0.03 in Rain Light Rain
1:54 PM 63.0 °F 60.1 °F 90% 30.06 in 6.0 mi NNE 18.4 mph 26.5 mph 0.04 in Rain Light Rain
2:54 PM 63.0 °F 60.1 °F 90% 30.06 in 5.0 mi NNE 15.0 mph - 0.03 in Rain Light Rain
3:54 PM 63.0 °F 61.0 °F 93% 30.06 in 4.0 mi NNE 15.0 mph - 0.05 in Rain Rain
4:54 PM 63.0 °F 61.0 °F 93% 30.06 in 4.0 mi NNE 17.3 mph - 0.07 in Rain Light Rain
5:54 PM 64.0 °F 61.0 °F 90% 30.06 in 5.0 mi NNE 17.3 mph - 0.04 in Rain Light Rain
6:54 PM 63.0 °F 61.0 °F 93% 30.06 in 7.0 mi NNE 15.0 mph - 0.10 in Rain Light Rain
7:04 PM 63.0 °F 61.0 °F 93% 30.07 in 6.0 mi NNE 19.6 mph - 0.01 in Rain Light Rain
7:54 PM 63.0 °F 60.1 °F 90% 30.08 in 9.0 mi NNE 12.7 mph 21.9 mph 0.05 in Rain Light Rain
8:47 PM 63.0 °F 61.0 °F 93% 30.10 in 5.0 mi North 13.8 mph - 0.02 in Rain Light Rain
8:54 PM 63.0 °F 61.0 °F 93% 30.09 in 5.0 mi North 15.0 mph - 0.03 in Rain Light Rain
9:03 PM 63.0 °F 61.0 °F 93% 30.09 in 5.0 mi North 15.0 mph - 0.01 in Rain Light Rain
9:54 PM 62.1 °F 60.1 °F 93% 30.08 in 4.0 mi NNE 16.1 mph - 0.07 in Rain Rain
10:54 PM 63.0 °F 62.1 °F 97% 30.08 in 4.0 mi NNE 11.5 mph 25.3 mph 0.10 in Rain Rain
11:54 PM 63.0 °F 61.0 °F 93% 30.08 in 4.0 mi NNE 19.6 mph 26.5 mph 0.14 in Rain Light Rain